This demonstration page uses our WeatherBlox Daily Observations layout. Learn more.

Left ArrowRight Arrow

Hourly Observations for April 14, 2020

Temp ( °F °C ) Dew Point ( °F °C ) Humidity (%) Winds ( mph kmh ) Pressure ( in mb ) Visibility ( mi km ) Precip ( " mm )
12:54 am 00:54 Clear 22 -5.6 10 -12.2 60 60 Calm 30.36 1028 10 16.0934 0 0
1:54 am 01:54 Clear 25 -3.9 11 -11.7 55 55 WSW 3 6 30.35 1028 10 16.0934 0 0
2:54 am 02:54 Clear 23 -5 11 -11.7 60 60 WNW 3 6 30.35 1028 10 16.0934 0 0
3:54 am 03:54 Clear 19 -7.2 9 -12.8 65 65 N 3 6 30.35 1028 10 16.0934 0 0
4:54 am 04:54 Clear 19 -7.2 10 -12.2 68 68 Calm 30.34 1028 10 16.0934 0 0
5:54 am 05:54 Clear 20 -6.7 11 -11.7 68 68 Calm 30.35 1028 10 16.0934 0 0
6:54 am 06:54 Sunny 22 -5.6 12 -11.1 66 66 W 5 7 30.36 1028 10 16.0934 0 0
7:54 am 07:54 Sunny 25 -3.9 13 -10.6 60 60 W 9 15 30.37 1028 10 16.0934 0 0
8:54 am 08:54 Sunny 32 0 15 -9.4 50 50 W 10 17 30.35 1028 10 16.0934 0 0
9:54 am 09:54 Sunny 35 1.7 12 -11.1 38 38 WNW 16 26 30.34 1027 10 16.0934 0 0
10:54 am 10:54 Sunny 39 3.9 13 -10.6 34 34 W 14 22 30.32 1027 10 16.0934 0 0
11:54 am 11:54 Sunny 41 5 11 -11.7 29 29 W 14 22 30.29 1026 10 16.0934 0 0
12:54 pm 12:54 Mostly Sunny 44 6.7 12 -11.1 27 27 W 16 26 30.25 1025 10 16.0934 0 0
1:54 pm 13:54 Cloudy 45 7.2 12 -11.1 26 26 W 17 28 30.2 1023 10 16.0934 0 0
2:54 pm 14:54 Mostly Cloudy 48 8.9 16 -8.9 28 28 W 17 28 30.16 1021 10 16.0934 0 0
3:54 pm 15:54 Cloudy 48 8.9 13 -10.6 24 24 SW 23 37 30.11 1020 10 16.0934 0 0
4:54 pm 16:54 Mostly Cloudy 49 9.4 13 -10.6 23 23 SW 12 19 30.08 1019 10 16.0934 0 0
5:19 pm 17:19 Cloudy 50 10 13 -10.6 22 22 W 17 28 30.05 1018 10 16.0934 0 0
5:54 pm 17:54 Mostly Sunny 49 9.4 13 -10.6 23 23 W 13 20 30.05 1018 10 16.0934 0 0
6:54 pm 18:54 Cloudy 50 10 10 -12.2 20 20 W 10 17 30.03 1017 10 16.0934 0 0
7:54 pm 19:54 Cloudy 48 8.9 12 -11.1 23 23 NNW 9 15 30.03 1017 10 16.0934 0 0
8:54 pm 20:54 Cloudy 41 5 18 -7.8 39 39 N 22 35 30.05 1018 10 16.0934 0 0
9:54 pm 21:54 Cloudy 38 3.3 21 -6.1 51 51 ENE 9 15 30.08 1019 10 16.0934 0 0
10:54 pm 22:54 Cloudy 37 2.8 22 -5.6 54 54 NNW 12 19 30.11 1020 10 16.0934 0 0
11:54 pm 23:54 Cloudy 34 1.1 23 -5 64 64 N 9 15 30.14 1021 10 16.0934 0 0

Powered by AerisWeather